Address 0x1e91b1157939abeb2b41f16ad9343b3bd39ca976 5

 
 
Txn Hash Method
Block
From
To
Value [Txn Fee]
0xda6fd1cb5a3f0434747034a07b23d60872bf0e77140510ea90df0e20172d3439Transfer276924212022-04-28 22:04:32111 days 18 hrs agoHUH: DeployerOUT0x6dbe275d4008000b39e12ad374a59aec31cf52740.52 MATIC0.000941124568 44.81545562
0xc80bf6bd08a5d820b0d1c7705de082c2eb247cef0922951fa7e0a4176d06af89Transfer262707442022-03-23 14:54:18148 days 2 hrs agoHUH: DeployerOUT HUH: HUH Token0 MATIC0.00281260708 32.084678434
0x1d44d16e0ad29e9827a9c77c04626b0b30975a2cf726ed510abab0d9c2e6e7c3Add Liquidity262697542022-03-23 14:18:04148 days 2 hrs agoHUH: DeployerOUT Celer Network: cBridge0 MATIC0.00305033049130.065846843
0x38af9fe602cb2f5902cd07b671150cd6ee24ceda364a8acec48fcf41e1eb2ab5Add Liquidity262675372022-03-23 12:57:38148 days 3 hrs agoHUH: DeployerOUT Celer Network: cBridge0 MATIC0.003062554281 30.179192557
0x5815566a4b3dbc1d957ec56a2afa1b15590771252b74369054fab5f7bd9e02b1Add Liquidity262252452022-03-22 11:34:34149 days 5 hrs agoHUH: DeployerOUT Celer Network: cBridge0 MATIC0.003719046607 31.369799731
0xab72925668452c3cb737acf7387510def54752e16482a2d66aa02e629d0a415bApprove262252262022-03-22 11:33:56149 days 5 hrs agoHUH: DeployerOUT HUH: HUH Token0 MATIC0.001447271031 31.039999825
0x444f28553198a714056d54f7af8aa14f31a4eb8a3ae401ead6ed2d33c806b555Transfer262251282022-03-22 11:29:44149 days 5 hrs agoHUH: DeployerOUT0x47119643cf8533827b4c20f521e69b96c1bfe8f91 MATIC0.000672210006 32.010000298
0x2d708c9d23e911abf9432b5a66352ecfc678e79356a110c9da6066cecdf9ebdeTransfer Ownersh...261964632022-03-21 17:51:45149 days 23 hrs agoHUH: DeployerOUT HUH: HUH Token0 MATIC0.000927387027 32.400063844
0x9f939fca3b56b13566de6a62c6f06199a05a4fe1be9e2ab87a77d908fab9dc7fTransfer261964202022-03-21 17:48:53149 days 23 hrs agoHUH: DeployerOUT HUH: HUH Token0 MATIC0.002603360449 30.485742302
0x5344a27f3a8825c9f07a0f93784ea71b61647b5cc90358a638fe841e45183bf5Transfer260804302022-03-18 16:11:53153 days 43 mins agoHUH: DeployerOUT0x47119643cf8533827b4c20f521e69b96c1bfe8f90.1 MATIC0.000637608638 30.362316096
0x4dead2686d97184239ab605a7cf911c6f7637991c70fe1768f5093d40ba2a6ed0x60806040259459922022-03-14 21:01:41156 days 19 hrs agoHUH: DeployerOUT Create: HuhToken0 MATIC0.425579552313 58.470166735
0xea3550bf991dc5a11dd52a9fbf731e14b565517b9cdd5a8414eeb01a7ee88aa30x60806040259459902022-03-14 21:01:33156 days 19 hrs agoHUH: DeployerOUT Create: RewardDistributor0 MATIC0.061321685045 32.592000003
0x3f941ff0c14c86bf88ad7aee29af504952459a02b896c87b6dfa34c64e57334dTransfer240655792022-01-23 12:32:17207 days 4 hrs agoHUH: DeployerOUT Wrapped Ether0 MATIC0.00225454966 64.633612206
0x566bdc42b1c362c92f66de1ac0669f7d9645075f70b65bc65be90b3b21e183c6Swap Exact Token...240652202022-01-23 12:19:59207 days 4 hrs agoHUH: DeployerOUT QuickSwap: Router0 MATIC0.011607240161 95.958533427
0x35e44fa5253da589c2331fb040615c34db4193f9fd2cf1d928844bbd0be03d4aSwap Exact Token...239888482022-01-21 13:58:51209 days 2 hrs agoHUH: DeployerOUT QuickSwap: Router0 MATIC0.064372758709 544.788540291
0xdeaab6089f963f0cacb03add5a02bd034941f8643b0396d2d20ca189d064716dSwap Exact Token...239888432022-01-21 13:58:31209 days 2 hrs agoHUH: DeployerOUT QuickSwap: Router0 MATIC0.060072226302 535.971541136
0xe3f56168580f8ecbb0da7c385a4aa232589856583ee66945260674c5d5f1bf4bSwap Exact Token...239888372022-01-21 13:58:07209 days 2 hrs agoHUH: DeployerOUT QuickSwap: Router0 MATIC0.067788377919 573.297175471
0xc07bdbb25e593708169eabffec6015a2879162827a57e08fb9bf2d0f2e0e96adSwap Exact Token...239888322022-01-21 13:57:47209 days 2 hrs agoHUH: DeployerOUT QuickSwap: Router0 MATIC0.067206441615 567.876174436
0x347c036dddd54cfeffb6c3e533a59ddb5448a62a1d00a99276e63cf2b899a1c4Remove Liquidity239888062022-01-21 13:56:03209 days 2 hrs agoHUH: DeployerOUT QuickSwap: Router0 MATIC0.054008042695 332.697048647
0x8d58c8b32b165a1777cb10867231290f1fad7b5f0594ebb4802a352a267a1c34Remove Liquidity239888022022-01-21 13:55:47209 days 2 hrs agoHUH: DeployerOUT QuickSwap: Router0 MATIC0.047440625128 297.448305422
0xf5a68cb770547603c1eaa5537ffd55b5bf780971b04fd80e904f1ceec984fc5bRemove Liquidity239887842022-01-21 13:55:01209 days 3 hrs agoHUH: DeployerOUT QuickSwap: Router0 MATIC0.049255339994 272.810222183
0xe6823e06cd2cf353ecb8b5e7a0eca92ed6e415979b3e651c53c173ac2b68b8ebRemove Liquidity239887512022-01-21 13:53:55209 days 3 hrs agoHUH: DeployerOUT QuickSwap: Router0 MATIC0.057018298119 306.033352939
0x52d0640c16047cf12d388cfb73741b2773e33010bc121872f8d54f27f67cc926Remove Liquidity239887392022-01-21 13:53:31209 days 3 hrs agoHUH: DeployerOUT QuickSwap: Router0 MATIC0.060340495054 326.411852508
0x64065cd5ac909af12a80452c15670efda716b6ec3184fc95ab0854c3a6d093ecSwap Exact Token...223767552021-12-11 0:22:53250 days 16 hrs agoHUH: DeployerOUT QuickSwap: Router0 MATIC0.0047873130
0x4069f510e870d0e209e8da5f732ce4acc0187f0195195adc50d6d38f3bb28d80Swap Exact Token...223767242021-12-11 0:21:51250 days 16 hrs agoHUH: DeployerOUT QuickSwap: Router0 MATIC0.0047416530
[ Download CSV Export 

OVERVIEW

Deployer address for HUH.

Latest 5 internal transactions
Parent Txn Hash Block From To Value
0x00944aa90b2418f211241382a304452dca84c22e26298d7ab185a6d387683699214946302021-11-17 23:42:40273 days 17 hrs ago QuickSwap: RouterHUH: Deployer10.575496905749701336 MATIC
0x8aabf3bcfcea6d0a2cf6486221140add73ddc634f9260777e1dbaed61a3cb42d210446912021-11-06 8:56:05285 days 7 hrs ago QuickSwap: RouterHUH: Deployer6.913242488710239143 MATIC
0x010ad8bd43301e9a56681d74156a852508696170a8d067bdb4195b833d9fb6ea210161582021-11-05 15:20:35286 days 1 hr ago QuickSwap: RouterHUH: Deployer9.957247525674172159 MATIC
0xa58f69a441bb774177defbf3c4c190d485eb49972c5b8046ae367dc6a31c6a45210093092021-11-05 11:05:10286 days 5 hrs ago Polygon: AirdropHUH: Deployer0.02 MATIC
0x2add07f2903933b217381b68be97b36a910e0cc48da3f3b680036255ef516d29210092792021-11-05 11:02:06286 days 5 hrs ago Polygon: AirdropHUH: Deployer0.02 MATIC
[ Download CSV Export 
Loading

Contract Name:
0 MATIC

Compiler Version
0

Optimization Enabled:
0 MATIC

Other Settings:
-NA-
Block Transaction Gas Used Reward
Age Block Fee Address BC Fee Address Voting Power Jailed Incoming
Block Uncle Number Difficulty Gas Used Reward
Loading
Loading
Make sure to use the "Vote Down" button for any spammy posts, and the "Vote Up" for interesting conversations.